Location: Sungai Bunut
(2.6333°N, 113.7333°E)
Time: 08:32:47
(UTC+00:00)

Courier 1B - Pass Details

Date: 10 December 2023
Orbit: 962 x 1209 km, 28.3° (Epoch: 03 March)

Event Time Altitude Azimuth Distance (km) Brightness Sun altitude
Exits shadow 18:52:19 18° 81° (E) 2,512 9.9 -47.5°
Drops below altitude 10° 18:54:10 10° 76° (ENE) 3,080 10.4 -47.1°
Sets 18:57:01 0° 71° (ENE) 4,014 11.1 -46.5°
